Saint Johnsbury, VT

1:27 PM EST on February 09, 2016 (GMT -0500)
St. Johnsbury

Weather History for K1V4 - April, 2013

Change the Weather History Date:

Monday, April 8, 2013

  Actual Average Record
Temperature  
Mean Temperature 45 °F 41 °F  
Max Temperature 53 °F 52 °F 80 °F (1991)
Min Temperature 36 °F 30 °F 10 °F (1972)
Degree Days  
Heating Degree Days 20 24  
Month to date heating degree days 234 204  
Since 1 July heating degree days 6766 7004  
Cooling Degree Days 0 0  
Month to date cooling degree days 0 0  
Year to date cooling degree days 0 0  
Moisture  
Dew Point 29 °F    
Average Humidity 53    
Maximum Humidity 70    
Minimum Humidity 35    
Precipitation  
Precipitation 0.00 in 0.09 in 0.94 in (1912)
Month to date precipitation 0.32 0.72  
Year to date precipitation 5.62 7.91  
Sea Level Pressure  
Sea Level Pressure 30.03 in    
Wind  
Wind Speed - (North)    
Max Wind Speed -    
Max Gust Speed -    
T = Trace of Precipitation, MM = Missing Value Source: NWS Daily Summary

Daily Weather History Graph

Daily Weather History Graph

Search for Another Location

Airport or City:

Trip Planner

Search our weather history database for the weather conditions in past years. The results will help you decide how hot, cold, wet, or windy it might be!

Date:

Astronomy

Apr. 08, 2013 Rise Set
Actual Time 6:16 AM EDT 7:24 PM EDT
Civil Twilight 5:46 AM EDT 7:54 PM EDT
Nautical Twilight 5:10 AM EDT 8:30 PM EDT
Astronomical Twilight 4:33 AM EDT 9:07 PM EDT
Moon 5:08 AM EDT (4/8) 5:53 PM EDT (4/8)
Length of Visible Light 14h 07m
Length of Day
13h 08m
Waning Crescent, 3% of the Moon is Illuminated
Apr 8
Waning Crescent
Apr 10
New
Apr 18
First Quarter
Apr 25
Full
May 2
Last Quarter

Hourly Weather History & Observations

Time (EDT) Temp. Dew Point Humidity Pressure Visibility Wind Dir Wind Speed Gust Speed Precip Events Conditions
12:54 AM 46.0 °F 33.1 °F 61% 29.88 in - North - - N/A   Unknown
1:54 AM 46.0 °F 34.0 °F 63% 29.88 in - North - - N/A   Unknown
2:54 AM 46.0 °F 33.1 °F 61% 29.91 in - North - - N/A   Unknown
3:54 AM 44.1 °F 33.1 °F 65% 29.93 in - North - - N/A   Unknown
4:54 AM 42.1 °F 32.0 °F 67% 29.95 in - North - - N/A   Unknown
5:54 AM 42.1 °F 30.9 °F 65% 29.98 in - North - - N/A   Unknown
6:54 AM 41.0 °F 30.9 °F 67% 30.02 in - North - - N/A   Unknown
7:54 AM 39.9 °F 30.0 °F 68% 30.06 in - North - - N/A   Unknown
8:54 AM 39.9 °F 28.9 °F 65% 30.08 in - North - - N/A   Unknown
9:54 AM 39.9 °F 28.9 °F 65% 30.09 in - North - - N/A   Unknown
10:54 AM 41.0 °F 28.0 °F 60% 30.11 in - North - - N/A   Unknown
11:54 AM 43.0 °F 28.0 °F 56% 30.13 in - North - - N/A   Unknown
12:54 PM 45.0 °F 28.0 °F 52% 30.11 in - North - - N/A   Unknown
1:54 PM 48.0 °F 28.0 °F 46% 30.09 in - North - - N/A   Unknown
2:54 PM 50.0 °F 28.9 °F 44% 30.06 in - North - - N/A   Unknown
3:54 PM 51.1 °F 27.0 °F 39% 30.07 in - North - - N/A   Unknown
4:54 PM 53.1 °F 27.0 °F 37% 30.05 in - North - - N/A   Unknown
5:54 PM 52.0 °F 26.1 °F 37% 30.04 in - North - - N/A   Unknown
6:54 PM 51.1 °F 27.0 °F 39% 30.03 in - North - - N/A   Unknown
7:54 PM 46.0 °F 28.0 °F 50% 30.05 in - North - - N/A   Unknown
8:54 PM 42.1 °F 28.9 °F 60% 30.07 in - North - - N/A   Unknown
9:54 PM 39.0 °F 28.9 °F 67% 30.07 in - North - - N/A   Unknown
10:54 PM 37.9 °F 28.9 °F 70% 30.05 in - North - - N/A   Unknown
11:54 PM 37.0 °F 28.0 °F 70% 30.03 in - North - - N/A   Unknown